Regional Weather Roundup
Issued by NWS

Home | Current Version | Previous Version | Text Only | Print | Product List | Glossary Off
Versions: 1 2 3 4 5 6 7 8 9 10 11 12 13 14 15 16 17 18 19 20 21 22 23 24 25 26 27 28 29 30 31 32 33 34 35 36 37 38 39 40 41 42 43 44 45 46 47 48 49 50

000
ASUS45 KBOU 210110
RWRCO

WEATHER ROUNDUP FOR COLORADO
NATIONAL WEATHER SERVICE PUEBLO CO
600 PM MST TUE FEB 20 2018

NOTE: "FAIR" INDICATES FEW OR NO CLOUDS BELOW 12000 FEET WITH NO
SIGNIFICANT WEATHER AND/OR OBSTRUCTIONS TO VISIBILITY.

COZ001>005-013-030-031-210200-
...NORTHWEST COLORADO...

CITY           SKY/WX    TMP DP  RH WIND       PRES   REMARKS
CRAIG          FAIR       9   0  67 CALM      30.03R
HAYDEN         FAIR      10   4  76 S3        30.03
MEEKER         FAIR      15   2  56 CALM      30.01R
RABBIT EARS PA NOT AVBL
STEAMBOAT SPGS FAIR      11   1  65 CALM      30.00R
WALDEN         FAIR       7  -8  51 SW9       29.92R WCI  -7
$$

COZ006>008-011-210200-
...WEST CENTRAL VALLEYS...

CITY           SKY/WX    TMP DP  RH WIND       PRES   REMARKS
GRAND JUNCTION FAIR      30  10  43 CALM      30.05R
MONTROSE       LGT SNOW  21  19  92 N5        30.07R FOG     WCI  15
EAGLE          CLOUDY    19  10  68 S13       30.02R WCI   6
RIFLE          FAIR      23  11  60 NW10      30.04R WCI  12
DELTA          NOT AVBL
NUCLA          FAIR      25  18  74 N3        30.08R
$$

COZ017>023-064>068-210200-
...SOUTHWEST COLORADO...

CITY           SKY/WX    TMP DP  RH WIND       PRES   REMARKS
DURANGO        CLOUDY    24  11  57 VRB6      30.02R WCI  17
CORTEZ         FAIR      26   9  48 S3        30.03R
PAGOSA SPRINGS CLOUDY    21   5  50 CALM      30.00R
TELLURIDE      LGT SNOW  13   7  77 CALM      29.94R
WOLF CREEK PAS   N/A      0  -4  85 SW22G28   29.87R WCI -23
$$

COZ009-010-012-014-032>034-037-058>063-210200-
...CENTRAL COLORADO...

CITY           SKY/WX    TMP DP  RH WIND       PRES   REMARKS
ASPEN          CLOUDY    14   8  77 CALM      29.95R
BUENA VISTA    CLOUDY    19  -1  40 W8        29.91R WCI   9
COPPER MTN     FAIR       1  -8  66 SW9       29.77R WCI -14
BERTHOUD PASS  MOCLDY    -8 -17  65 W15       29.73R WCI -29
COTTONWOOD PAS CLOUDY    18  -2  41 W3        29.86R
GUNNISON       FAIR      17   1  49 W8        29.96R WCI   7
KREMMLING      LGT SNOW  19  12  73 N5        29.97R WCI  13
LEADVILLE      FAIR       2  -3  80 N5        29.84R WCI  -8
MONARCH PASS   LGT SNOW   1  -4  78 SW17      29.89R VSB 1   WCI -19
SALIDA         FAIR      22   2  41 W10       30.00R WCI  11
SUNLIGHT       LGT SNOW   1  -4  78 SW5       29.88R VSB 3/4 WCI  -8
WILKERSON PASS FAIR       5  -8  56 SW7G20    29.81R WCI  -7
$$

COZ069>075-210200-
...SAN LUIS VALLEY/SANGRE DE CRISTO MOUNTAINS...

CITY           SKY/WX    TMP DP  RH WIND       PRES   REMARKS
ALAMOSA        FAIR      21   1  41 S14       29.96R WCI   8
DEL NORTE      FAIR      19   1  47 SW9       29.95R WCI   7
LA VETA PASS   FAIR      12  -2  52 S25G39    29.96R WCI  -8
SAGUACHE       FAIR      21   7  53 NW9       29.94R WCI  11
$$

COZ035-036-038>040-210200-
...NORTHERN COLORADO FRONT RANGE...

CITY           SKY/WX    TMP DP  RH WIND       PRES   REMARKS
DENVER INTL AP MOCLDY    11   4  73 CALM      30.05R
DMNS CITY PARK NOT AVBL
AURORA         PTCLDY     6   2  84 S7        30.04R WCI  -6
FRONT RANGE AP NOT AVBL
ERIE MUNI ARPT FAIR       8   2  77 NE3       30.14R
BOULDER MUN AP FAIR      10   5  79 CALM      30.06R
CENTENNIAL     FAIR      12   7  80 NE3       30.02R
BROOMFIELD     CLOUDY    12   7  79 VRB6      30.04R WCI   3
LOVELAND       FAIR       5  -3  69 SE5       30.09R WCI  -4
LONGMONT       FAIR      10   2  70 CALM      30.11R
$$

COZ041-046-047-076>085-087-088-210200-
...PIKES PEAK/PALMER DIVIDE AND SOUTHERN FOOTHILLS...

CITY           SKY/WX    TMP DP  RH WIND       PRES   REMARKS
COLO. SPRINGS  LGT SNOW  18  12  77 SE10      30.03R FOG     WCI   6
A. F. ACADEMY  LGT SNOW  18  14  83 S9        29.99R WCI   7
SCHRIEVER AFB  NOT AVBL
CHEYENNE MTN   NOT AVBL
ELLICOTT         N/A    N/A N/A N/A SE9       30.02R
FALCON         FLURRIES  17  12  82 S5        30.00R WCI  10
FORT CARSON    CLOUDY    19  12  75 S10       30.03R WCI   7
LIMON          FAIR       6   2  83 E3        30.08R
MONUMENT HILL  FLURRIES  16  14  93 E7        29.97R WCI   6
CANON CITY     CLOUDY    21  16  79 E13       30.05R WCI   9
WALSENBURG     FAIR      18  14  86 NE7       30.02R WCI   8
TRINIDAD       FAIR      22  10  60 NE10      30.02R WCI  11
$$

COZ042>045-048>051-090-091-210200-
...NORTHEAST COLORADO...

CITY           SKY/WX    TMP DP  RH WIND       PRES   REMARKS
GREELEY ARPT   FAIR       3  -3  76 CALM      30.13R
AKRON          FAIR       8  -1  66 E5        30.12R WCI   0
BURLINGTON     FAIR       5  -2  72 NE6       30.16R WCI  -6
WRAY           FAIR      10   1  67 NE7       30.21R WCI   0
YUMA           NOT AVBL
STERLING       FAIR      10   3  72 N6        30.16R WCI   1
HOLYOKE        FAIR      10   0  61 NE3       30.20R
FORT MORGAN    CLOUDY    10   1  65 W5        30.14R WCI   2
$$

COZ086-089-092>099-210200-
...SOUTHEAST COLORADO...

CITY           SKY/WX    TMP DP  RH WIND       PRES   REMARKS
PUEBLO         FAIR      20  10  65 S8        30.10R WCI  10
LA JUNTA       FAIR      22   8  55 NE9       30.13R WCI  12
LAMAR          CLOUDY    22   4  46 NE14      30.16R WCI   9
SPRINGFIELD      N/A     18   2  49 NE9       30.10R WCI   7
$$




USA.gov is the U.S. government's official web portal to all federal, state and local government web resources and services.